EDW1080 EGKK-LSZH

Flight info

Callsign EDW1080
Flight time 1h 6m
Altitude 32000
Route ODVIK Y311 DVR DCT MIMFO Y312 DVR UL9 KONAN DCT KOK DCT CIV DCT SUTAL DCT GTQ DCT BAMEV DCT BLM BLM3G LSZH
Aircraft A359/H-L/MCDU

Departure

Time 2026-05-04 13:30
Airport London Gatwick Airport (EGKK)

Arrival

Time 2026-05-04 14:36
Airport Zürich Airport (LSZH)
Time Latitude Longitude Altitude Speed Heading
2026-05-04 13:18 51.15266 -0.18229 219 ft 0 kts 167°
2026-05-04 13:19 51.15265 -0.18229 219 ft 1 kts 167°
2026-05-04 13:20 51.15238 -0.18219 214 ft 6 kts 168°
2026-05-04 13:20 51.15194 -0.18240 222 ft 7 kts 227°
2026-05-04 13:20 51.15175 -0.18331 218 ft 10 kts 259°
2026-05-04 13:20 51.15159 -0.18459 218 ft 13 kts 259°
2026-05-04 13:21 51.15139 -0.18623 214 ft 17 kts 259°
2026-05-04 13:21 51.15114 -0.18815 218 ft 19 kts 258°
2026-05-04 13:21 51.15093 -0.18966 212 ft 13 kts 257°
2026-05-04 13:21 51.15072 -0.19118 220 ft 16 kts 257°
2026-05-04 13:22 51.15046 -0.19303 217 ft 18 kts 257°
2026-05-04 13:22 51.15017 -0.19511 218 ft 17 kts 257°
2026-05-04 13:22 51.14990 -0.19707 215 ft 20 kts 257°
2026-05-04 13:22 51.14960 -0.19932 210 ft 22 kts 258°
2026-05-04 13:23 51.14926 -0.20181 215 ft 22 kts 258°
2026-05-04 13:23 51.14907 -0.20323 218 ft 12 kts 258°
2026-05-04 13:23 51.14886 -0.20472 218 ft 15 kts 258°
2026-05-04 13:23 51.14862 -0.20652 210 ft 13 kts 258°
2026-05-04 13:24 51.14845 -0.20786 210 ft 14 kts 258°
2026-05-04 13:24 51.14823 -0.20950 217 ft 16 kts 258°
2026-05-04 13:24 51.14800 -0.21099 218 ft 8 kts 254°
2026-05-04 13:25 51.14764 -0.21285 210 ft 0 kts 261°
2026-05-04 13:25 51.14761 -0.21302 210 ft 10 kts 259°
2026-05-04 13:25 51.14743 -0.21382 214 ft 6 kts 225°
2026-05-04 13:25 51.14734 -0.21390 222 ft 0 kts 208°
2026-05-04 13:26 51.14733 -0.21390 222 ft 1 kts 208°
2026-05-04 13:26 51.14696 -0.21387 218 ft 8 kts 163°
2026-05-04 13:27 51.14642 -0.21339 220 ft 10 kts 154°
2026-05-04 13:27 51.14564 -0.21293 216 ft 13 kts 150°
2026-05-04 13:27 51.14513 -0.21200 219 ft 8 kts 106°
2026-05-04 13:27 51.14517 -0.21147 215 ft 0 kts 78°
2026-05-04 13:29 51.14518 -0.21144 215 ft 4 kts 78°
2026-05-04 13:29 51.14581 -0.20682 217 ft 87 kts 77°
2026-05-04 13:29 51.14769 -0.19303 215 ft 165 kts 78°
2026-05-04 13:30 51.15044 -0.17310 740 ft 195 kts 77°
2026-05-04 13:30 51.15369 -0.15103 1652 ft 213 kts 76°
2026-05-04 13:30 51.15727 -0.12734 2227 ft 224 kts 76°
2026-05-04 13:30 51.16063 -0.10300 2480 ft 225 kts 78°
2026-05-04 13:31 51.16389 -0.07810 2730 ft 236 kts 78°
2026-05-04 13:31 51.16729 -0.05213 3056 ft 244 kts 78°
2026-05-04 13:31 51.16907 -0.02494 3444 ft 249 kts 89°
2026-05-04 13:31 51.16868 0.00128 3804 ft 258 kts 91°
2026-05-04 13:32 51.16798 0.03112 4342 ft 261 kts 91°
2026-05-04 13:32 51.16737 0.06019 4979 ft 265 kts 91°
2026-05-04 13:32 51.16679 0.08985 5614 ft 268 kts 92°
2026-05-04 13:32 51.16621 0.11979 6255 ft 272 kts 92°
2026-05-04 13:33 51.16563 0.15024 6862 ft 276 kts 92°
2026-05-04 13:33 51.16531 0.18063 7472 ft 279 kts 90°
2026-05-04 13:33 51.16546 0.21173 8107 ft 282 kts 90°
2026-05-04 13:33 51.16562 0.24302 8745 ft 285 kts 90°
2026-05-04 13:34 51.16574 0.27467 9402 ft 287 kts 90°
2026-05-04 13:34 51.16583 0.30666 10042 ft 290 kts 90°
2026-05-04 13:34 51.16591 0.33902 10659 ft 293 kts 90°
2026-05-04 13:34 51.16598 0.37189 11282 ft 302 kts 91°
2026-05-04 13:35 51.16599 0.40599 11928 ft 312 kts 91°
2026-05-04 13:35 51.16597 0.47748 13244 ft 331 kts 91°
2026-05-04 13:35 51.16593 0.51470 13908 ft 340 kts 91°
2026-05-04 13:36 51.16588 0.55275 14509 ft 347 kts 91°
2026-05-04 13:36 51.16585 0.59162 15126 ft 354 kts 91°
2026-05-04 13:36 51.16582 0.63117 15756 ft 360 kts 91°
2026-05-04 13:36 51.16578 0.67139 16395 ft 365 kts 91°
2026-05-04 13:37 51.16573 0.71211 17050 ft 370 kts 91°
2026-05-04 13:37 51.16568 0.73926 17466 ft 373 kts 91°
2026-05-04 13:37 51.16558 0.78045 18027 ft 381 kts 92°
2026-05-04 13:37 51.16550 0.80920 18396 ft 387 kts 92°
2026-05-04 13:38 51.16531 0.86731 19036 ft 397 kts 92°
2026-05-04 13:38 51.16514 0.91113 19524 ft 404 kts 92°
2026-05-04 13:38 51.16497 0.95629 20004 ft 411 kts 92°
2026-05-04 13:38 51.16477 1.00220 20516 ft 418 kts 92°
2026-05-04 13:39 51.16456 1.04887 21025 ft 424 kts 92°
2026-05-04 13:39 51.16432 1.09620 21551 ft 430 kts 92°
2026-05-04 13:39 51.16407 1.14417 22082 ft 435 kts 92°
2026-05-04 13:39 51.16378 1.19274 22622 ft 441 kts 92°
2026-05-04 13:40 51.16347 1.24196 23168 ft 447 kts 92°
2026-05-04 13:40 51.16314 1.29111 23686 ft 453 kts 92°
2026-05-04 13:40 51.16278 1.34150 24163 ft 458 kts 92°
2026-05-04 13:40 51.16226 1.39318 24648 ft 463 kts 94°
2026-05-04 13:41 51.16047 1.44478 25133 ft 467 kts 96°
2026-05-04 13:41 51.15779 1.49573 25623 ft 471 kts 97°
2026-05-04 13:41 51.15472 1.54796 26122 ft 475 kts 98°
2026-05-04 13:42 51.14867 1.65363 27161 ft 482 kts 97°
2026-05-04 13:42 51.14582 1.70693 27690 ft 484 kts 97°
2026-05-04 13:42 51.14305 1.76048 28226 ft 486 kts 97°
2026-05-04 13:42 51.14031 1.81444 28784 ft 488 kts 97°
2026-05-04 13:43 51.13758 1.86837 29344 ft 489 kts 98°
2026-05-04 13:43 51.13482 1.92237 29917 ft 489 kts 98°
2026-05-04 13:43 51.13204 1.97638 30429 ft 489 kts 98°
2026-05-04 13:43 51.12925 2.03037 30922 ft 489 kts 98°
2026-05-04 13:44 51.12647 2.08353 31416 ft 488 kts 98°
2026-05-04 13:44 51.12360 2.13732 31859 ft 488 kts 98°
2026-05-04 13:44 51.12067 2.19129 32007 ft 493 kts 99°
2026-05-04 13:44 51.11763 2.24625 32013 ft 502 kts 99°
2026-05-04 13:45 51.11152 2.35845 32007 ft 512 kts 98°
2026-05-04 13:45 51.10526 2.47123 31999 ft 512 kts 99°
2026-05-04 13:46 51.09798 2.58370 31997 ft 509 kts 103°
2026-05-04 13:46 51.08157 2.67243 31993 ft 499 kts 118°
2026-05-04 13:47 51.04642 2.76629 31995 ft 493 kts 128°
2026-05-04 13:47 51.00739 2.85582 31992 ft 492 kts 129°
2026-05-04 13:48 50.96797 2.94468 31988 ft 491 kts 129°
2026-05-04 13:48 50.92883 3.03359 31984 ft 491 kts 129°
2026-05-04 13:49 50.89016 3.12177 31974 ft 490 kts 129°
2026-05-04 13:49 50.85119 3.21048 31973 ft 490 kts 129°
2026-05-04 13:50 50.81214 3.29901 31964 ft 490 kts 129°
2026-05-04 13:50 50.77301 3.38741 31959 ft 490 kts 129°
2026-05-04 13:51 50.73405 3.47511 31975 ft 490 kts 129°
2026-05-04 13:51 50.69583 3.56089 31970 ft 490 kts 129°
2026-05-04 13:52 50.63668 3.69309 31969 ft 490 kts 129°
2026-05-04 13:53 50.59746 3.78039 31963 ft 490 kts 129°
2026-05-04 13:53 50.55796 3.86862 31966 ft 491 kts 128°
2026-05-04 13:54 50.50223 4.00419 31978 ft 492 kts 127°
2026-05-04 13:55 50.44690 4.13912 31987 ft 492 kts 127°
2026-05-04 13:55 50.39052 4.27413 31990 ft 492 kts 128°
2026-05-04 13:56 50.35302 4.36341 31992 ft 492 kts 128°
2026-05-04 13:57 50.29629 4.49796 31989 ft 493 kts 128°
2026-05-04 13:58 50.22038 4.67698 31986 ft 494 kts 128°
2026-05-04 13:58 50.16322 4.81097 31990 ft 495 kts 128°
2026-05-04 13:59 50.12490 4.90043 31988 ft 495 kts 128°
2026-05-04 14:00 50.06726 5.03441 31988 ft 496 kts 128°
2026-05-04 14:00 50.00950 5.16800 31994 ft 496 kts 128°
2026-05-04 14:01 49.97086 5.25700 31993 ft 497 kts 128°
2026-05-04 14:02 49.91272 5.39035 31997 ft 497 kts 129°
2026-05-04 14:02 49.87383 5.47915 32002 ft 497 kts 129°
2026-05-04 14:03 49.83503 5.56748 31995 ft 498 kts 129°
2026-05-04 14:03 49.79599 5.65606 31998 ft 498 kts 129°
2026-05-04 14:04 49.73724 5.78878 31995 ft 499 kts 129°
2026-05-04 14:04 49.69791 5.87726 31994 ft 499 kts 129°
2026-05-04 14:05 49.63861 6.01012 31996 ft 500 kts 129°
2026-05-04 14:06 49.59914 6.09818 31994 ft 500 kts 129°
2026-05-04 14:06 49.56702 6.16960 31990 ft 501 kts 129°
2026-05-04 14:07 49.52759 6.25708 31985 ft 501 kts 129°
2026-05-04 14:07 49.48667 6.34367 32001 ft 497 kts 135°
2026-05-04 14:08 49.43467 6.41114 31995 ft 485 kts 154°
2026-05-04 14:08 49.37434 6.45661 32004 ft 482 kts 160°
2026-05-04 14:09 49.28203 6.51792 32003 ft 481 kts 160°
2026-05-04 14:10 49.19035 6.57916 32010 ft 481 kts 160°
2026-05-04 14:10 49.12918 6.62038 32002 ft 481 kts 160°
2026-05-04 14:11 49.06920 6.66085 31672 ft 458 kts 160°
2026-05-04 14:11 49.01233 6.69913 31153 ft 435 kts 160°
2026-05-04 14:11 48.98497 6.71747 30891 ft 424 kts 161°
2026-05-04 14:12 48.95807 6.73494 30649 ft 415 kts 162°
2026-05-04 14:12 48.93131 6.75097 30408 ft 411 kts 163°
2026-05-04 14:12 48.87794 6.78156 29883 ft 408 kts 164°
2026-05-04 14:13 48.86113 6.79120 29702 ft 407 kts 164°
2026-05-04 14:13 48.83495 6.80633 29419 ft 406 kts 163°
2026-05-04 14:13 48.80868 6.82165 29134 ft 404 kts 163°
2026-05-04 14:13 48.78256 6.83699 28854 ft 403 kts 163°
2026-05-04 14:14 48.75640 6.85241 28582 ft 401 kts 163°
2026-05-04 14:14 48.70442 6.88305 28036 ft 399 kts 163°
2026-05-04 14:14 48.67858 6.89826 27770 ft 397 kts 163°
2026-05-04 14:15 48.62721 6.92843 27232 ft 395 kts 163°
2026-05-04 14:15 48.57609 6.95836 26732 ft 393 kts 163°
2026-05-04 14:16 48.52562 6.98784 26219 ft 390 kts 162°
2026-05-04 14:16 48.50035 7.00258 25970 ft 389 kts 162°
2026-05-04 14:17 48.44983 7.03201 25465 ft 388 kts 162°
2026-05-04 14:17 48.42466 7.04664 25225 ft 387 kts 162°
2026-05-04 14:17 48.37458 7.07573 24742 ft 385 kts 162°
2026-05-04 14:18 48.34961 7.09021 24503 ft 384 kts 162°
2026-05-04 14:18 48.29989 7.11899 24029 ft 382 kts 162°
2026-05-04 14:19 48.25076 7.14736 23567 ft 380 kts 162°
2026-05-04 14:19 48.22616 7.16190 23291 ft 380 kts 160°
2026-05-04 14:19 48.20283 7.18081 22849 ft 384 kts 149°
2026-05-04 14:19 48.18251 7.20690 22288 ft 388 kts 135°
2026-05-04 14:20 48.16593 7.23888 21746 ft 388 kts 129°
2026-05-04 14:20 48.15050 7.27196 21201 ft 386 kts 128°
2026-05-04 14:20 48.13523 7.30498 20675 ft 385 kts 128°
2026-05-04 14:21 48.10489 7.37044 19636 ft 380 kts 128°
2026-05-04 14:21 48.08983 7.40285 19124 ft 377 kts 128°
2026-05-04 14:21 48.07488 7.43496 18635 ft 375 kts 128°
2026-05-04 14:21 48.06028 7.46630 18029 ft 369 kts 128°
2026-05-04 14:22 48.04573 7.49751 17120 ft 362 kts 128°
2026-05-04 14:22 48.03132 7.52831 16216 ft 360 kts 128°
2026-05-04 14:22 48.01705 7.55880 15344 ft 357 kts 128°
2026-05-04 14:22 48.00290 7.58898 14491 ft 353 kts 128°
2026-05-04 14:23 47.97502 7.64841 12852 ft 343 kts 128°
2026-05-04 14:23 47.96138 7.67742 12401 ft 341 kts 128°
2026-05-04 14:23 47.94784 7.70621 12004 ft 337 kts 128°
2026-05-04 14:24 47.93439 7.73476 11633 ft 334 kts 128°
2026-05-04 14:24 47.92125 7.76265 11267 ft 331 kts 128°
2026-05-04 14:24 47.90790 7.79092 10896 ft 328 kts 128°
2026-05-04 14:24 47.89492 7.81839 10531 ft 330 kts 128°
2026-05-04 14:25 47.88174 7.84622 10176 ft 326 kts 128°
2026-05-04 14:25 47.85607 7.90053 9331 ft 318 kts 127°
2026-05-04 14:25 47.84367 7.92668 8783 ft 300 kts 127°
2026-05-04 14:26 47.83197 7.95126 8231 ft 283 kts 127°
2026-05-04 14:26 47.82090 7.97458 7782 ft 268 kts 127°
2026-05-04 14:26 47.81021 7.99710 7407 ft 264 kts 127°
2026-05-04 14:26 47.79960 8.01939 7061 ft 263 kts 127°
2026-05-04 14:27 47.78903 8.04152 6794 ft 260 kts 127°
2026-05-04 14:27 47.78218 8.05589 6637 ft 254 kts 126°
2026-05-04 14:27 47.77196 8.07724 6388 ft 254 kts 126°
2026-05-04 14:27 47.76177 8.09856 6122 ft 252 kts 126°
2026-05-04 14:28 47.75166 8.11976 6019 ft 251 kts 126°
2026-05-04 14:28 47.74156 8.14083 6016 ft 251 kts 126°
2026-05-04 14:28 47.73141 8.16198 6021 ft 251 kts 126°
2026-05-04 14:28 47.72133 8.18308 6014 ft 250 kts 126°
2026-05-04 14:29 47.70212 8.22322 5823 ft 231 kts 126°
2026-05-04 14:29 47.68566 8.25540 5163 ft 219 kts 132°
2026-05-04 14:30 47.67522 8.27092 4819 ft 210 kts 136°
2026-05-04 14:30 47.66474 8.28543 4450 ft 201 kts 136°
2026-05-04 14:30 47.64448 8.31343 4001 ft 195 kts 137°
2026-05-04 14:31 47.63454 8.32717 4003 ft 196 kts 137°
2026-05-04 14:31 47.61469 8.35459 4010 ft 195 kts 137°
2026-05-04 14:32 47.59577 8.38047 3992 ft 168 kts 137°
2026-05-04 14:32 47.58733 8.39202 3991 ft 162 kts 137°
2026-05-04 14:32 47.57912 8.40328 4012 ft 163 kts 137°
2026-05-04 14:32 47.57081 8.41473 3988 ft 164 kts 137°
2026-05-04 14:33 47.56253 8.42624 3837 ft 161 kts 136°
2026-05-04 14:33 47.55445 8.43769 3632 ft 160 kts 136°
2026-05-04 14:33 47.54648 8.44905 3380 ft 158 kts 137°
2026-05-04 14:33 47.53985 8.45817 3104 ft 156 kts 139°
2026-05-04 14:34 47.53172 8.46876 2777 ft 156 kts 139°
2026-05-04 14:34 47.52360 8.47957 2524 ft 156 kts 140°
2026-05-04 14:34 47.51918 8.48545 2389 ft 154 kts 139°
2026-05-04 14:34 47.51137 8.49614 2223 ft 153 kts 137°
2026-05-04 14:35 47.50355 8.50690 1996 ft 156 kts 137°
2026-05-04 14:35 47.49564 8.51769 1779 ft 154 kts 137°
2026-05-04 14:35 47.48777 8.52841 1574 ft 153 kts 136°
2026-05-04 14:35 47.47997 8.53895 1423 ft 151 kts 137°
2026-05-04 14:36 47.47283 8.54871 1410 ft 121 kts 137°
2026-05-04 14:36 47.46822 8.55501 1412 ft 58 kts 137°
2026-05-04 14:36 47.46633 8.55756 1408 ft 24 kts 137°
2026-05-04 14:36 47.46510 8.55889 1407 ft 25 kts 153°
2026-05-04 14:37 47.46393 8.55951 1411 ft 7 kts 166°
2026-05-04 14:37 47.46314 8.55979 1407 ft 16 kts 167°
2026-05-04 14:37 47.46247 8.55999 1409 ft 14 kts 168°
2026-05-04 14:37 47.46128 8.55995 1409 ft 16 kts 185°
2026-05-04 14:38 47.46046 8.55984 1410 ft 4 kts 185°
2026-05-04 14:38 47.46005 8.55979 1407 ft 7 kts 185°
2026-05-04 14:38 47.45952 8.55954 1416 ft 9 kts 221°
2026-05-04 14:38 47.45941 8.55855 1407 ft 12 kts 272°
2026-05-04 14:39 47.45950 8.55738 1413 ft 0 kts 289°
2026-05-04 14:39 47.45962 8.55721 1412 ft 3 kts 331°
2026-05-04 14:39 47.46001 8.55731 1408 ft 12 kts
2026-05-04 14:40 47.46034 8.55736 1410 ft 0 kts